Terminal Aerodrome Forecast
Issued by NWS Quad Cities IA IL

Home | Current Version | Previous Version | Text Only | Print | Product List | Glossary On
Versions: 1 2 3 4 5 6 7 8 9 10 11 12 13 14 15 16 17
000
FTUS43 KDVN 061100
TAFMLI
TAF
KMLI 061130Z 0612/0712 19010KT P6SM BKN080
     FM061600 22013G20KT P6SM SCT150
     FM070100 24007KT P6SM BKN150=

USA.gov is the U.S. government's official web portal to all federal, state and local government web resources and services.